Weather History for Minneapolis, MN

Change the Weather History Date:

Friday, July 12, 2013

  Actual Average Record
Temperature  
Mean Temperature 79 °F 74 °F  
Max Temperature 90 °F 84 °F 106 °F (1936)
Min Temperature 68 °F 64 °F 48 °F (1941)
Degree Days  
Heating Degree Days 0 0  
Month to date heating degree days 0 0  
Since 1 June heating degree days 42 44  
Since 1 July heating degree days 0 0  
Cooling Degree Days 14 9  
Month to date cooling degree days 148 106  
Year to date cooling degree days 365 306  
Since 1 June cooling degree days 312 264  
Growing Degree Days 29 (Base 50)    
Moisture  
Dew Point 58 °F    
Average Humidity 55    
Maximum Humidity 73    
Minimum Humidity 36    
Precipitation  
Precipitation 0.00 in 0.13 in 2.93 in (1912)
Month to date precipitation 0.37 1.54  
Year to date precipitation 21.23 15.37  
Snow  
Snow 0.00 in 0.00 in 0.00 in ()
Month to date snowfall 0.0 0.0  
Since 1 June snowfall 0.0 0.0  
Since 1 July snowfall 0.0 0.0  
Snow Depth 0.00 in    
Sea Level Pressure  
Sea Level Pressure 29.97 in    
Wind  
Wind Speed 14 mph (SSE)    
Max Wind Speed 25 mph    
Max Gust Speed 32 mph    
Visibility 10 miles    
Events      
T = Trace of Precipitation, MM = Missing Value Source: NWS Daily Summary

Daily Weather History Graph

Daily Weather History Graph

Search for Another Location

Airport:

Trip Planner

Search our weather history database for the weather conditions in past years. The results will help you decide how hot, cold, wet, or windy it might be!

Date:

Astronomy

Jul. 12, 2013 Rise Set
Actual Time 5:38 AM CDT 8:58 PM CDT
Civil Twilight 5:02 AM CDT 9:34 PM CDT
Nautical Twilight 4:15 AM CDT 10:21 PM CDT
Astronomical Twilight 3:16 AM CDT 11:19 PM CDT
Moon 10:09 AM CDT (7/12) 10:54 PM CDT (7/12)
Length of Visible Light 16h 31m
Length of Day
15h 19m
Waxing Crescent, 17% of the Moon is Illuminated
Jul 12
Waxing Crescent
Jul 15
First Quarter
Jul 22
Full
Jul 29
Last Quarter
Aug 6
New

Hourly Weather History & Observations

Time (CDT) Temp. Heat Index Dew Point Humidity Pressure Visibility Wind Dir Wind Speed Gust Speed Precip Events Conditions
12:53 AM 75.0 °F - 55.9 °F 51% 29.99 in 10.0 mi South 11.5 mph - N/A   Partly Cloudy
1:53 AM 73.0 °F - 57.0 °F 57% 30.00 in 10.0 mi South 10.4 mph - N/A   Clear
2:53 AM 72.0 °F - 57.0 °F 59% 30.00 in 10.0 mi SSE 8.1 mph - N/A   Clear
3:53 AM 71.1 °F - 57.0 °F 61% 30.00 in 10.0 mi SSE 10.4 mph - N/A   Scattered Clouds
4:53 AM 69.1 °F - 57.9 °F 68% 30.00 in 10.0 mi SE 9.2 mph - N/A   Scattered Clouds
5:53 AM 68.0 °F - 59.0 °F 73% 30.01 in 9.0 mi SE 9.2 mph - N/A   Mostly Cloudy
6:53 AM 69.1 °F - 59.0 °F 70% 30.01 in 9.0 mi SE 6.9 mph - N/A   Scattered Clouds
7:53 AM 73.0 °F - 59.0 °F 61% 30.01 in 9.0 mi SSE 9.2 mph - N/A   Partly Cloudy
8:53 AM 75.9 °F - 57.9 °F 54% 30.01 in 10.0 mi South 12.7 mph 19.6 mph N/A   Partly Cloudy
9:53 AM 79.0 °F - 60.1 °F 52% 30.00 in 10.0 mi South 10.4 mph - N/A   Partly Cloudy
10:53 AM 82.0 °F 82.1 °F 59.0 °F 45% 29.99 in 10.0 mi South 15.0 mph - N/A   Partly Cloudy
11:53 AM 84.9 °F 84.4 °F 59.0 °F 41% 29.97 in 10.0 mi South 15.0 mph 24.2 mph N/A   Clear
12:53 PM 86.0 °F 85.4 °F 59.0 °F 40% 29.96 in 10.0 mi South 21.9 mph 25.3 mph N/A   Partly Cloudy
1:53 PM 88.0 °F 86.9 °F 57.9 °F 36% 29.95 in 10.0 mi South 19.6 mph 26.5 mph N/A   Partly Cloudy
2:53 PM 89.1 °F 88.8 °F 60.1 °F 38% 29.95 in 10.0 mi SSE 19.6 mph 26.5 mph N/A   Partly Cloudy
3:53 PM 89.1 °F 88.2 °F 59.0 °F 36% 29.93 in 10.0 mi SSE 23.0 mph 28.8 mph N/A   Partly Cloudy
4:53 PM 89.1 °F 88.2 °F 59.0 °F 36% 29.92 in 10.0 mi SSE 17.3 mph 27.6 mph N/A   Scattered Clouds
5:53 PM 89.1 °F 88.2 °F 59.0 °F 36% 29.92 in 10.0 mi South 16.1 mph 26.5 mph N/A   Scattered Clouds
6:53 PM 87.1 °F 86.1 °F 57.9 °F 37% 29.92 in 10.0 mi SSE 19.6 mph 29.9 mph N/A   Scattered Clouds
7:53 PM 84.9 °F 84.8 °F 60.1 °F 43% 29.92 in 10.0 mi SSE 12.7 mph 21.9 mph N/A   Scattered Clouds
8:53 PM 82.9 °F 82.8 °F 59.0 °F 44% 29.91 in 10.0 mi South 15.0 mph 24.2 mph N/A   Scattered Clouds
9:53 PM 81.0 °F 81.1 °F 57.9 °F 45% 29.90 in 10.0 mi SSE 17.3 mph - N/A   Scattered Clouds
10:53 PM 79.0 °F - 59.0 °F 50% 29.92 in 10.0 mi SSE 17.3 mph 26.5 mph N/A   Scattered Clouds
11:53 PM 78.1 °F - 59.0 °F 52% 29.95 in 10.0 mi South 12.7 mph - N/A   Partly Cloudy